Weather History for Sheridan, WY

Change the Weather History Date:

Saturday, January 28, 2012

  Actual Average Record
Temperature  
Mean Temperature 27 °F 24 °F  
Max Temperature 37 °F 37 °F 62 °F (1931)
Min Temperature 17 °F 12 °F -28 °F (1951)
Degree Days  
Heating Degree Days 38 41  
Month to date heating degree days 1059 1157  
Since 1 July heating degree days 3896 4340  
Cooling Degree Days 0 0  
Month to date cooling degree days 0 0  
Year to date cooling degree days 0 0  
Moisture  
Dew Point 10 °F    
Average Humidity 49    
Maximum Humidity 68    
Minimum Humidity 29    
Precipitation  
Precipitation 0.00 in 0.02 in 0.47 in (1916)
Month to date precipitation 0.35 0.50  
Year to date precipitation 0.35 0.50  
Sea Level Pressure  
Sea Level Pressure 30.26 in    
Wind  
Wind Speed 5 mph (WSW)    
Max Wind Speed 25 mph    
Max Gust Speed 30 mph    
Visibility 10 miles    
Events      
T = Trace of Precipitation, MM = Missing Value Source: NWS Daily Summary

Daily Weather History Graph

Daily Weather History Graph

Search for Another Location

Airport:

Trip Planner

Search our weather history database for the weather conditions in past years. The results will help you decide how hot, cold, wet, or windy it might be!

Date:

Astronomy

Jan. 28, 2012 Rise Set
Actual Time 7:31 AM MST 5:10 PM MST
Civil Twilight 7:00 AM MST 5:41 PM MST
Nautical Twilight 6:25 AM MST 6:17 PM MST
Astronomical Twilight 5:50 AM MST 6:51 PM MST
Moon 9:38 AM MST (1/28) 11:19 PM MST (1/28)
Length of Visible Light 10h 41m
Length of Day
9h 38m
Waxing Crescent, 28% of the Moon is Illuminated
Jan 28
Waxing Crescent
Jan 30
First Quarter
Feb 7
Full
Feb 14
Last Quarter
Feb 21
New

Hourly Weather History & Observations

Time (MST) Temp. Windchill Dew Point Humidity Pressure Visibility Wind Dir Wind Speed Gust Speed Precip Events Conditions
12:53 AM 23.0 °F 14.7 °F 5.0 °F 46% 30.27 in 10.0 mi NNW 6.9 mph - N/A   Overcast
1:53 AM 19.0 °F 13.9 °F 5.0 °F 54% 30.27 in 10.0 mi WSW 3.5 mph - N/A   Overcast
2:53 AM 21.0 °F 11.4 °F 5.0 °F 50% 30.27 in 10.0 mi WNW 8.1 mph - N/A   Scattered Clouds
3:53 AM 19.0 °F 12.3 °F 5.0 °F 54% 30.30 in 10.0 mi West 4.6 mph - N/A   Mostly Cloudy
4:53 AM 19.0 °F 11.1 °F 5.0 °F 54% 30.31 in 10.0 mi WNW 5.8 mph - N/A   Mostly Cloudy
5:53 AM 19.9 °F 10.1 °F 5.0 °F 52% 30.32 in 10.0 mi NNW 8.1 mph - N/A   Partly Cloudy
6:53 AM 21.0 °F 14.6 °F 3.9 °F 48% 30.33 in 10.0 mi NW 4.6 mph - N/A   Clear
7:53 AM 24.1 °F - 3.9 °F 42% 30.31 in 10.0 mi Calm Calm - N/A   Clear
8:53 AM 23.0 °F 15.8 °F 9.0 °F 55% 30.32 in 10.0 mi SSE 5.8 mph - N/A   Overcast
9:53 AM 27.0 °F 20.5 °F 12.0 °F 53% 30.30 in 10.0 mi SSE 5.8 mph - N/A   Mostly Cloudy
10:53 AM 30.0 °F 24.1 °F 7.0 °F 38% 30.29 in 10.0 mi South 5.8 mph - N/A   Mostly Cloudy
11:53 AM 33.1 °F - 5.0 °F 31% 30.28 in 10.0 mi Calm Calm - N/A   Overcast
12:53 PM 36.0 °F 31.1 °F 10.9 °F 36% 30.26 in 10.0 mi NW 5.8 mph 21.9 mph N/A   Overcast
1:53 PM 36.0 °F 25.0 °F 12.9 °F 39% 30.26 in 10.0 mi NNW 20.7 mph - N/A   Overcast
2:53 PM 36.0 °F 29.0 °F 12.0 °F 37% 30.23 in 10.0 mi NNW 9.2 mph - N/A   Partly Cloudy
3:53 PM 35.1 °F 32.2 °F 10.9 °F 37% 30.24 in 10.0 mi South 3.5 mph - N/A   Overcast
4:53 PM 33.1 °F - 12.0 °F 42% 30.24 in 10.0 mi Calm Calm - N/A   Overcast
5:53 PM 26.1 °F 21.9 °F 16.0 °F 66% 30.26 in 10.0 mi WSW 3.5 mph - N/A   Overcast
6:53 PM 23.0 °F - 12.9 °F 65% 30.25 in 10.0 mi Calm Calm - N/A   Scattered Clouds
7:53 PM 21.9 °F 13.4 °F 12.9 °F 68% 30.24 in 10.0 mi SSW 6.9 mph - N/A   Clear
8:53 PM 25.0 °F 20.7 °F 12.9 °F 60% 30.20 in 10.0 mi SSE 3.5 mph - N/A   Partly Cloudy
9:53 PM 26.1 °F 21.9 °F 12.9 °F 58% 30.17 in 10.0 mi South 3.5 mph - N/A   Mostly Cloudy
10:53 PM 26.1 °F - 16.0 °F 66% 30.14 in 10.0 mi Calm Calm - N/A   Overcast
11:53 PM 26.1 °F - 19.0 °F 75% 30.12 in 10.0 mi Calm Calm - N/A   Overcast